[[{"header":{"parameterUnit":"m.s-1","parameterCategory":1,"la1":30.2991,"la2":30.254,"lo1":-89.0895,"lo2":-89.0444,"dy":0.0017,"dx":0.0017,"nx":28,"ny":28,"refTime":"2025-08-23T09:00:00:Z","depth":0,"parameterNumber":2,"parameterNumberName":"U-component_of_WINDS"},"data":[0,0,0,0,0,0,0,0,0,0,0,0,0,0,0,0,0,0,0,0,0,0,0,0,0,0,0,0,0,0,0,0,0,0,0,0,0,0,0,0,0,0,0,0,0,0,0,0,0,0,0,0,0,0,0,0,0,0,0.6725,0.6725,0,0.6738,0.6739,0.6739,0.6681,0.6679,0.6678,0.6676,0.669,0.6692,0.6694,0,0,0,0,0,0,0,0,0,0,0,0,0,0.6654,0.6656,0.6725,0.6725,0.6726,0.6738,0.6739,0.6739,0.6681,0.6679,0.6677,0.6675,0.669,0.6692,0.6694,0,0,0,0,0,0,0,0,0,0,0,0,0,0.6678,0.6656,0.6725,0.6699,0.6696,0.6738,0.6739,0.6739,0.6682,0.6679,0.6677,0.6674,0.6689,0.6692,0.6695,0.6763,0,0,0.6703,0.6705,0,0,0,0,0,0,0,0,0.6677,0.6681,0.6702,0.67,0.6698,0.6706,0.6719,0.6747,0.6682,0.6687,0.6676,0.6673,0.6697,0.6699,0.6707,0.6764,0.6764,0.6704,0.6705,0.6707,0.6708,0,0,0,0,0,0,0,0.6675,0.668,0.673,0.6703,0.67,0.6687,0.6688,0.6724,0.6706,0.6687,0.6683,0.6685,0.6696,0.6705,0.6707,0.6765,0.6704,0.6706,0.6708,0.6709,0.6885,0.6887,0,0,0,0,0,0,0.6677,0.6679,0.673,0.6731,0.6681,0.669,0.6691,0.6706,0.6706,0.6703,0.6687,0.6682,0.6701,0.6704,0.6708,0.6793,0.6707,0.6709,0.6711,0.6882,0.6885,0.6888,0,0,0,0,0,0,0.6675,0.6682,0.673,0.6704,0.6709,0.6694,0.6711,0.6707,0.6716,0.6706,0.6703,0.6699,0.6699,0.6704,0.6751,0.6793,0.6711,0.6713,0.6878,0.6883,0.6887,0.6961,0,0,0,0,0,0,0.6673,0.6682,0.6706,0.6705,0.671,0.6772,0.6714,0.6709,0.6722,0.6715,0.6717,0.6715,0.6698,0.6747,0.6754,0.6795,0.6716,0.6875,0.688,0.6885,0.6955,0.6968,0.6979,0,0,0,0,0,0.6671,0.6726,0.6708,0.6715,0.6741,0.6774,0.6778,0.6757,0.6725,0.6751,0.6745,0.6715,0.6786,0.6753,0.676,0.6802,0.6872,0.6879,0.6885,0.695,0.6965,0.6978,0,0,0,0,0,0,0.6732,0.6725,0.6705,0.676,0.6769,0.6765,0.6797,0.6773,0.679,0.6784,0.6757,0.6758,0.6812,0.6811,0.6773,0.6872,0.6824,0.6832,0.6871,0.6885,0.6897,0.6897,0.6718,0,0,0,0,0,0.6752,0.6779,0.6771,0.6821,0.6826,0.6811,0.6824,0.6808,0.6815,0.6819,0.6816,0.6825,0.685,0.6867,0.6889,0.6954,0.6957,0.6987,0.6999,0.7008,0.7017,0.7058,0.7073,0.691,0.691,0.691,0,0,0.6793,0.6793,0.6811,0.6833,0.6838,0.6869,0.6814,0.6847,0.6871,0.6823,0.687,0.6869,0.6877,0.6936,0.6961,0.6937,0.7063,0.7017,0.7024,0.7028,0.7066,0.7082,0.7095,0.6914,0.6913,0.6913,0,0,0.6885,0.6885,0.693,0.6936,0.6944,0.6934,0.6945,0.6945,0.6943,0.6989,0.6956,0.6984,0.7025,0.7035,0.7045,0.7145,0.712,0.7153,0.7215,0.7255,0.7268,0.7279,0.732,0.7335,0.7161,0.7161,0.7161,0,0.6936,0.698,0.6955,0.6993,0.7006,0.6965,0.7012,0.7019,0.7034,0.7044,0.7016,0.7073,0.7074,0.7138,0.7163,0.717,0.7185,0.7154,0.7268,0.7279,0.7289,0.7328,0.7343,0.7165,0.7165,0.7164,0.7164,0,0.7045,0.7076,0.7111,0.7129,0.7145,0.7186,0.717,0.719,0.7173,0.7167,0.7217,0.7218,0.7243,0.7256,0.7238,0.7318,0.7304,0.7272,0.7224,0.731,0.7346,0.736,0.7172,0.717,0.7169,0.7168,0,0,0.7175,0.7181,0.7195,0.7205,0.7212,0.7237,0.7278,0.7302,0.7322,0.7334,0.7371,0.7409,0.7382,0.7394,0.7377,0.7411,0.7498,0.7376,0.7376,0.7404,0.7593,0.762,0.7638,0.748,0.7482,0.7484,0.7594,0,0.727,0.7341,0.7322,0.7394,0.7426,0.7389,0.7426,0.7436,0.7432,0.7459,0.7454,0.7485,0.7443,0.7451,0.7483,0.7481,0.7536,0.7472,0.7518,0.752,0.7522,0.7656,0.7683,0.7787,0.7608,0.761,0.7611,0,0.739,0.7409,0.7485,0.7492,0.7504,0.7538,0.7562,0.7587,0.7599,0.7594,0.7609,0.7587,0.7631,0.758,0.7643,0.76,0.7617,0.7619,0.7623,0.763,0.7574,0.7671,0.7818,0.7836,0.7633,0.7631,0.7629,0,0.7485,0.7529,0.7581,0.759,0.7598,0.7623,0.7628,0.7637,0.7655,0.7675,0.7688,0.7712,0.7727,0.7749,0.7735,0.7698,0.7802,0.7749,0.7803,0.7804,0.783,0.7829,0.7987,0.7833,0.7833,0.7832,0.7832,0,0.7595,0.7644,0.7625,0.7658,0.7713,0.7691,0.7747,0.7747,0.7757,0.7791,0.7759,0.7792,0.777,0.7802,0.7791,0.7849,0.7854,0.7854,0.7852,0.786,0.7861,0.7874,0.7869,0.7837,0.7836,0.7835,0.7834,0,0.7712,0.77,0.7756,0.776,0.7762,0.7803,0.7807,0.784,0.7834,0.7878,0.7887,0.7879,0.7916,0.7903,0.7941,0.7935,0.8009,0.7995,0.8006,0.8004,0.8062,0.8059,0.8238,0.8263,0.8088,0.8089,0.8091,0,0.7785,0.7822,0.7831,0.7853,0.786,0.7893,0.7912,0.7893,0.7914,0.7933,0.7964,0.7998,0.8024,0.8085,0.8084,0.8115,0.8104,0.8164,0.8108,0.8118,0.8112,0.8112,0.8118,0.8177,0.8179,0.8181,0.8182,0,0.7919,0.7912,0.794,0.7968,0.7992,0.8013,0.803,0.805,0.8032,0.8058,0.8096,0.8116,0.8158,0.8194,0.8223,0.8229,0.8205,0.8199,0.8215,0.8226,0.8234,0.8236,0.8042,0.8196,0.8195,0.8194,0.8193,0.8192,0.8019,0.8053,0.8067,0.8101,0.8112,0.8131,0.8163,0.8162,0.8193,0.8226,0.8213,0.8258,0.8273,0.8309,0.832,0.8357,0.8334,0.8354,0.836,0.8367,0.8377,0.8224,0.8361,0.836,0.836,0.836,0.8359,0,0.8157,0.8164,0.8195,0.8223,0.8251,0.8224,0.8243,0.8269,0.831,0.8325,0.8353,0.8399,0.8435,0.8438,0.8472,0.8501,0.8492,0.8512,0.8512,0.8515,0.8393,0.8379,0.8519,0.8519,0.8519,0.8519,0.8519,0.8519,0.8231,0.8289,0.8285,0.835,0.8357,0.8401,0.8416,0.8434,0.8448,0.8501,0.8531,0.8532,0.8544,0.858,0.8613,0.8613,0.863,0.8655,0.8652,0.8538,0.8523,0.8508,0.8495,0.8658,0.8658,0.8772,0.8773,0.8774]},{"header":{"parameterUnit":"m.s-1","parameterCategory":1,"la1":30.2991,"la2":30.254,"lo1":-89.0895,"lo2":-89.0444,"dy":0.0017,"dx":0.0017,"nx":28,"ny":28,"refTime":"2025-08-23T09:00:00:Z","depth":0,"parameterNumber":3,"parameterNumberName":"V-component_of_WINDS"},"data":[0,0,0,0,0,0,0,0,0,0,0,0,0,0,0,0,0,0,0,0,0,0,0,0,0,0,0,0,0,0,0,0,0,0,0,0,0,0,0,0,0,0,0,0,0,0,0,0,0,0,0,0,0,0,0,0,0,0,-2.2505,-2.2506,0,-2.2569,-2.257,-2.257,-2.2597,-2.2597,-2.2597,-2.2597,-2.2658,-2.266,-2.2662,0,0,0,0,0,0,0,0,0,0,0,0,0,-2.2401,-2.2402,-2.2505,-2.2506,-2.2506,-2.2569,-2.257,-2.257,-2.2597,-2.2597,-2.2597,-2.2597,-2.2658,-2.266,-2.2662,0,0,0,0,0,0,0,0,0,0,0,0,0,-2.2453,-2.2403,-2.2505,-2.2527,-2.253,-2.2569,-2.257,-2.2571,-2.2597,-2.2597,-2.2597,-2.2597,-2.2657,-2.266,-2.2662,-2.2682,0,0,-2.267,-2.2671,0,0,0,0,0,0,0,0,-2.245,-2.2457,-2.2523,-2.2526,-2.2529,-2.2575,-2.2556,-2.2608,-2.2597,-2.2571,-2.2597,-2.2597,-2.263,-2.2635,-2.2648,-2.2685,-2.2687,-2.2671,-2.2672,-2.2673,-2.2674,0,0,0,0,0,0,0,-2.2447,-2.2454,-2.253,-2.2524,-2.2528,-2.2533,-2.254,-2.2566,-2.2601,-2.2574,-2.2576,-2.2583,-2.2632,-2.2645,-2.2649,-2.2688,-2.267,-2.2673,-2.2674,-2.2675,-2.2743,-2.2743,0,0,0,0,0,0,-2.244,-2.2451,-2.2528,-2.2532,-2.2488,-2.2535,-2.2543,-2.256,-2.2601,-2.2607,-2.2583,-2.2584,-2.2641,-2.2646,-2.2651,-2.2676,-2.2673,-2.2676,-2.2677,-2.2743,-2.2743,-2.2743,0,0,0,0,0,0,-2.2437,-2.2446,-2.2525,-2.2492,-2.2503,-2.2537,-2.2556,-2.2562,-2.2575,-2.2608,-2.2614,-2.259,-2.2641,-2.2648,-2.2674,-2.2679,-2.2677,-2.2679,-2.2742,-2.2743,-2.2743,-2.2726,0,0,0,0,0,0,-2.2434,-2.2445,-2.2455,-2.2492,-2.2504,-2.2548,-2.2556,-2.2563,-2.258,-2.2581,-2.2616,-2.2622,-2.2641,-2.267,-2.2677,-2.2682,-2.2681,-2.2742,-2.2742,-2.2743,-2.2727,-2.2726,-2.2726,0,0,0,0,0,-2.2431,-2.2447,-2.2455,-2.2464,-2.2517,-2.2549,-2.2555,-2.2578,-2.258,-2.2588,-2.261,-2.2621,-2.2677,-2.2672,-2.268,-2.2687,-2.2742,-2.2742,-2.2743,-2.2727,-2.2726,-2.2726,0,0,0,0,0,0,-2.2408,-2.2452,-2.2462,-2.2491,-2.2516,-2.2553,-2.2565,-2.2577,-2.2601,-2.2602,-2.2627,-2.2635,-2.2659,-2.2675,-2.2669,-2.2707,-2.271,-2.2712,-2.2695,-2.2695,-2.2695,-2.269,-2.2683,0,0,0,0,0,-2.2407,-2.243,-2.2467,-2.2489,-2.2501,-2.2531,-2.2546,-2.2561,-2.2587,-2.2598,-2.2621,-2.2645,-2.2668,-2.2682,-2.2705,-2.2729,-2.2736,-2.2737,-2.2736,-2.2736,-2.2737,-2.275,-2.275,-2.2745,-2.2745,-2.2745,0,0,-2.2404,-2.2431,-2.2444,-2.2485,-2.2507,-2.2529,-2.254,-2.2563,-2.2579,-2.2601,-2.2627,-2.2645,-2.2673,-2.2698,-2.271,-2.2712,-2.274,-2.2736,-2.2736,-2.2738,-2.275,-2.2751,-2.2751,-2.2745,-2.2745,-2.2745,0,0,-2.241,-2.2433,-2.2454,-2.2475,-2.2507,-2.2526,-2.2531,-2.2566,-2.2579,-2.2606,-2.2622,-2.264,-2.268,-2.2699,-2.2714,-2.2725,-2.2736,-2.2731,-2.2729,-2.2741,-2.2741,-2.2741,-2.2745,-2.2746,-2.2733,-2.2733,-2.2733,0,-2.2402,-2.2438,-2.2463,-2.2485,-2.2502,-2.2523,-2.2543,-2.2561,-2.2599,-2.2609,-2.2612,-2.266,-2.2681,-2.271,-2.2712,-2.2724,-2.2729,-2.2728,-2.2739,-2.274,-2.2741,-2.2744,-2.2745,-2.2732,-2.2732,-2.2732,-2.2732,0,-2.2426,-2.2451,-2.2463,-2.2499,-2.2518,-2.2539,-2.2565,-2.258,-2.2593,-2.2611,-2.2637,-2.2662,-2.269,-2.2698,-2.271,-2.2728,-2.2728,-2.2734,-2.2738,-2.274,-2.2744,-2.2745,-2.2731,-2.2731,-2.2731,-2.2732,0,0,-2.2421,-2.247,-2.2474,-2.2491,-2.2527,-2.2545,-2.2566,-2.2594,-2.2606,-2.263,-2.2647,-2.2679,-2.2685,-2.2702,-2.2716,-2.2727,-2.2733,-2.2732,-2.2733,-2.273,-2.2752,-2.2747,-2.2748,-2.274,-2.274,-2.274,-2.2749,0,-2.2432,-2.2473,-2.2494,-2.2525,-2.2546,-2.2565,-2.2583,-2.2606,-2.2623,-2.2643,-2.2661,-2.2683,-2.2689,-2.2699,-2.271,-2.273,-2.2737,-2.2729,-2.2755,-2.2755,-2.2747,-2.275,-2.2746,-2.2753,-2.2751,-2.2751,-2.2751,0,-2.2451,-2.2476,-2.2508,-2.254,-2.255,-2.2566,-2.2593,-2.2612,-2.2637,-2.2649,-2.2667,-2.2681,-2.2702,-2.2704,-2.2732,-2.2726,-2.2737,-2.2748,-2.2749,-2.2752,-2.2754,-2.2753,-2.2756,-2.2757,-2.2754,-2.2754,-2.2753,0,-2.2443,-2.2484,-2.2509,-2.2522,-2.2561,-2.2571,-2.2587,-2.2613,-2.2628,-2.265,-2.266,-2.2684,-2.2698,-2.2715,-2.2735,-2.2734,-2.276,-2.2764,-2.2769,-2.2769,-2.2774,-2.2774,-2.2779,-2.2782,-2.2782,-2.2782,-2.2781,0,-2.2453,-2.2472,-2.2506,-2.2521,-2.2542,-2.2566,-2.2586,-2.2603,-2.2625,-2.2643,-2.266,-2.2676,-2.2701,-2.2719,-2.2734,-2.2755,-2.276,-2.2769,-2.2773,-2.2768,-2.2767,-2.2776,-2.2776,-2.2782,-2.2782,-2.2782,-2.2782,0,-2.2448,-2.2472,-2.25,-2.2534,-2.2543,-2.2557,-2.2585,-2.2599,-2.2617,-2.2638,-2.2645,-2.2672,-2.2694,-2.2715,-2.2745,-2.2755,-2.2775,-2.278,-2.2767,-2.2769,-2.2773,-2.2772,-2.2784,-2.2786,-2.2787,-2.2787,-2.2787,0,-2.2453,-2.2468,-2.2504,-2.2517,-2.2533,-2.2555,-2.257,-2.2593,-2.2608,-2.2638,-2.2648,-2.2672,-2.2692,-2.2726,-2.2747,-2.2769,-2.2775,-2.2777,-2.2778,-2.2772,-2.2774,-2.2773,-2.2774,-2.2777,-2.2777,-2.2777,-2.2777,0,-2.2459,-2.247,-2.2492,-2.2518,-2.2536,-2.2558,-2.2579,-2.2589,-2.2616,-2.2631,-2.2655,-2.267,-2.27,-2.2723,-2.2748,-2.2762,-2.2773,-2.2776,-2.2778,-2.2773,-2.2765,-2.2769,-2.2765,-2.2776,-2.2776,-2.2776,-2.2776,-2.2776,-2.2459,-2.2473,-2.25,-2.2524,-2.2542,-2.2562,-2.2577,-2.2596,-2.2617,-2.2644,-2.2655,-2.2679,-2.2702,-2.2736,-2.275,-2.2768,-2.277,-2.2774,-2.2775,-2.2775,-2.2774,-2.2762,-2.2772,-2.2772,-2.2772,-2.2772,-2.2772,0,-2.2465,-2.2483,-2.2505,-2.2535,-2.2553,-2.2563,-2.2587,-2.2601,-2.2622,-2.2643,-2.2663,-2.2688,-2.271,-2.2733,-2.2755,-2.2765,-2.277,-2.277,-2.2769,-2.2772,-2.277,-2.2766,-2.2765,-2.2765,-2.2765,-2.2765,-2.2765,-2.2765,-2.247,-2.2494,-2.2508,-2.254,-2.2558,-2.2582,-2.2595,-2.2612,-2.2629,-2.2658,-2.2676,-2.2691,-2.2712,-2.2736,-2.2756,-2.2762,-2.2769,-2.2767,-2.2774,-2.2772,-2.2773,-2.2773,-2.2769,-2.2768,-2.2768,-2.2775,-2.2775,-2.2775]}]]